Location: Unspecified
(34.4950°S, 58.5160°W)
Time: 23:01:56
(UTC+00:00)

Cosmos 2263 Rocket - Pass Details

Date: 19 April 2026
Orbit: 824 x 846 km, 71.0° (Epoch: 16 May)

Event Time Altitude Azimuth Distance (km) Brightness Sun altitude
Exits shadow 09:45:01 10° 257° (WSW) 2,525 4.0 -8.0°
Reaches altitude 10° 09:45:24 10° 261° (W) 2,483 3.9 -7.9°
Maximum altitude 09:46:53 11° 277° (W) 2,405 3.9 -7.6°
Drops below altitude 10° 09:48:22 10° 292° (WNW) 2,474 4.1 -7.3°
Sets 09:52:55 0° 326° (NW) 3,394 5.1 -6.4°
